Location: B?lite?ti
(46.2833°N, 22.7333°E)
Time: 16:24:35
(UTC+00:00)

Cosmos 1328 - Pass Details

Date: 24 January 2021
Orbit: 528 x 555 km, 82.5° (Epoch: 28 February)

Event Time Altitude Azimuth Distance (km) Brightness Sun altitude
Rises 17:24:19 0° 196° (SSW) 2,712 7.7 -21.0°
Reaches altitude 10° 17:26:30 10° 200° (SSW) 1,820 6.8 -21.3°
Maximum altitude 17:30:28 60° 281° (W) 632 4.3 -22.0°
Enters shadow 17:33:35 16° 359° (N) 1,485 6.0 -22.5°
